Location: Newark
(7.0858°N, 171.3717°E)
Time: 05:51:08
(UTC+00:00)

Courier 1B Rocket - Pass Details

Date: 28 November 2020
Orbit: 920 x 1202 km, 28.2° (Epoch: 20 January)

Event Time Altitude Azimuth Distance (km) Brightness Sun altitude
Rises 23:57:05 0° 311° (NW) 3,900 7.9 60.9°
Reaches altitude 10° 00:00:13 10° 320° (NW) 2,896 7.3 61.0°
Maximum altitude 00:06:31 34° 23° (NNE) 1,601 6.3 61.3°
Drops below altitude 10° 00:12:26 10° 87° (E) 2,716 7.5 61.5°
Sets 00:15:15 0° 96° (E) 3,627 8.1 61.5°
